N6GIW Weather Reports


time (UTC)temp
C
wind
direction
speed
KPH
gust
KPH
rain 1hr
cm
rain 24hr
cm
rain mn
cm
humidity
%
barometer
mb
20260506003504 18 242 8.0 32.2 0.00 0.00 0.00 37 1017.9
20260506003005 18 190 8.0 14.5 0.00 0.00 0.00 38 1018.1
20260506002503 17 218 4.8 11.3 0.00 0.00 0.00 38 1018.0
20260506001503 17 248 6.4 16.1 0.00 0.00 0.00 38 1018.0
20260506000503 17 217 8.0 14.5 0.00 0.00 0.00 38 1018.0
20260506000004 17 240 9.7 16.1 0.00 0.00 0.00 39 1018.1
20260505235503 17 256 11.3 19.3 0.00 0.00 0.00 39 1018.1
20260505235003 17 241 4.8 14.5 0.00 0.00 0.00 39 1018.1
20260505234503 17 219 6.4 14.5 0.00 0.00 0.00 39 1018.0
20260505234004 17 206 4.8 11.3 0.00 0.00 0.00 38 1018.0
20260505233005 17 189 4.8 14.5 0.00 0.00 0.00 38 1018.0
20260505232504 17 209 4.8 19.3 0.00 0.00 0.00 38 1018.0
20260505232004 17 2 1.6 9.7 0.00 0.00 0.00 39 1018.1
20260505231504 17 149 1.6 4.8 0.00 0.00 0.00 39 1018.0
20260505231004 17 146 3.2 11.3 0.00 0.00 0.00 39 1018.0
20260505230504 17 171 3.2 11.3 0.00 0.00 0.00 39 1018.0
20260505230004 17 218 4.8 12.9 0.00 0.00 0.00 38 1018.0
20260505225504 17 187 1.6 8.0 0.00 0.00 0.00 39 1018.2
20260505225003 17 200 1.6 8.0 0.00 0.00 0.00 38 1018.1
20260505224504 17 239 4.8 9.7 0.00 0.00 0.00 37 1018.2
20260505224004 17 223 3.2 19.3 0.00 0.00 0.00 38 1018.2
20260505223505 17 173 1.6 9.7 0.00 0.00 0.00 37 1018.3
20260505223003 18 188 4.8 14.5 0.00 0.00 0.00 37 1018.3
20260505222503 18 216 6.4 11.3 0.00 0.00 0.00 37 1018.3
20260505222004 18 295 6.4 16.1 0.00 0.00 0.00 37 1018.2
20260505221004 17 187 1.6 11.3 0.00 0.00 0.00 38 1018.4
20260505220504 17 232 6.4 16.1 0.00 0.00 0.00 38 1018.5
20260505220003 17 243 4.8 11.3 0.00 0.00 0.00 38 1018.5
20260505215504 17 151 8.0 12.9 0.00 0.00 0.00 38 1018.5
20260505215003 17 14 1.6 8.0 0.00 0.00 0.00 39 1018.5
20260505214503 16 53 1.6 8.0 0.00 0.00 0.00 40 1018.6
20260505214003 16 192 3.2 11.3 0.00 0.00 0.00 40 1018.7
20260505213005 16 151 4.8 14.5 0.00 0.00 0.00 40 1018.9
20260505212503 16 192 4.8 14.5 0.00 0.00 0.00 41 1018.9
20260505211004 16 276 1.6 9.7 0.00 0.00 0.00 40 1019.1
20260505210504 16 297 4.8 19.3 0.00 0.00 0.00 40 1019.0
20260505210004 16 192 4.8 19.3 0.00 0.00 0.00 40 1019.1
20260505205503 17 144 1.6 12.9 0.00 0.00 0.00 41 1019.1
20260505205004 16 154 4.8 12.9 0.00 0.00 0.00 41 1019.0
20260505204003 16 237 8.0 12.9 0.00 0.00 0.00 41 1018.9
20260505203504 16 271 1.6 11.3 0.00 0.00 0.00 42 1018.9
20260505203003 16 278 9.7 14.5 0.00 0.00 0.00 42 1018.8
20260505202503 16 247 4.8 11.3 0.00 0.00 0.00 42 1019.1
20260505202004 16 187 6.4 11.3 0.00 0.00 0.00 43 1019.2
20260505201004 16 271 1.6 11.3 0.00 0.00 0.00 42 1019.3
20260505200504 15 243 0.0 4.8 0.00 0.00 0.00 42 1019.3
20260505195504 15 248 0.0 11.3 0.00 0.00 0.00 42 1019.4
20260505195004 16 332 3.2 8.0 0.00 0.00 0.00 42 1019.4
20260505194504 15 358 3.2 9.7 0.00 0.00 0.00 43 1019.6
20260505194003 15 16 3.2 4.8 0.00 0.00 0.00 43 1019.6
20260505193503 15 258 9.7 16.1 0.00 0.00 0.00 42 1019.5
20260505193004 16 298 8.0 19.3 0.00 0.00 0.00 42 1019.3
20260505192504 16 144 3.2 19.3 0.00 0.00 0.00 42 1019.5
20260505192003 16 29 3.2 8.0 0.00 0.00 0.00 43 1019.5
20260505191504 15 319 3.2 12.9 0.00 0.00 0.00 44 1019.5
20260505191004 16 12 8.0 14.5 0.00 0.00 0.00 43 1019.6
20260505190504 16 11 8.0 19.3 0.00 0.00 0.00 43 1019.5
20260505190004 16 12 8.0 19.3 0.00 0.00 0.00 42 1019.4
20260505185503 16 323 6.4 12.9 0.00 0.00 0.00 42 1019.5
20260505185004 16 317 4.8 14.5 0.00 0.00 0.00 41 1019.5
20260505184503 17 29 1.6 8.0 0.00 0.00 0.00 37 1019.5
20260505184003 16 27 0.0 3.2 0.00 0.00 0.00 37 1019.4
20260505183504 16 9 1.6 4.8 0.00 0.00 0.00 38 1019.4
20260505183004 16 79 3.2 9.7 0.00 0.00 0.00 38 1019.4
20260505182504 16 140 0.0 4.8 0.00 0.00 0.00 39 1019.4
20260505182004 16 139 3.2 4.8 0.00 0.00 0.00 39 1019.4
20260505181504 16 116 1.6 4.8 0.00 0.00 0.00 40 1019.4
20260505181004 16 110 3.2 14.5 0.00 0.00 0.00 41 1019.4
20260505180504 15 8 4.8 11.3 0.00 0.00 0.00 42 1019.3
20260505180003 15 79 3.2 9.7 0.00 0.00 0.00 42 1019.3
20260505175504 15 92 3.2 8.0 0.00 0.00 0.00 43 1019.3
20260505175004 15 6 6.4 11.3 0.00 0.00 0.00 41 1019.2
20260505174504 15 16 6.4 12.9 0.00 0.00 0.00 41 1019.1
20260505174003 15 353 3.2 8.0 0.00 0.00 0.00 41 1019.1
20260505173505 16 13 1.6 4.8 0.00 0.00 0.00 40 1019.1
20260505173004 16 32 8.0 12.9 0.00 0.00 0.00 39 1019.1
20260505172003 16 81 4.8 11.3 0.00 0.00 0.00 41 1019.0
20260505171504 15 104 4.8 11.3 0.00 0.00 0.00 42 1019.0
20260505171003 15 93 4.8 9.7 0.00 0.00 0.00 42 1019.0
20260505170004 15 32 3.2 8.0 0.00 0.00 0.00 43 1019.1
20260505165503 14 41 3.2 8.0 0.00 0.00 0.00 44 1019.0
20260505165003 14 106 1.6 4.8 0.00 0.00 0.00 43 1019.0
20260505164504 14 104 1.6 4.8 0.00 0.00 0.00 43 1019.0
20260505163504 15 129 1.6 8.0 0.00 0.00 0.00 42 1019.0
20260505163003 15 133 1.6 11.3 0.00 0.00 0.00 42 1019.0
20260505162504 15 101 1.6 4.8 0.00 0.00 0.00 44 1018.9
20260505161503 14 104 1.6 11.3 0.00 0.00 0.00 44 1018.8
20260505161004 14 83 3.2 4.8 0.00 0.00 0.00 45 1018.7
20260505160504 14 86 1.6 4.8 0.00 0.00 0.00 45 1018.5
20260505153003 13 113 0.0 3.2 0.00 0.00 0.00 46 1018.5
20260505152504 13 115 1.6 4.8 0.00 0.00 0.00 47 1018.4
20260505152003 13 116 1.6 4.8 0.00 0.00 0.00 48 1018.5
20260505151503 13 137 4.8 12.9 0.00 0.00 0.00 49 1018.3
20260505150504 12 139 8.0 12.9 0.00 0.00 0.00 49 1018.3
20260505140503 9 215 0.0 0.0 0.00 0.00 0.00 54 1018.0
20260505124504 6 245 0.0 0.0 0.00 0.00 0.00 63 1017.6
20260505124003 6 245 0.0 0.0 0.00 0.00 0.00 62 1017.6
20260505123504 6 245 0.0 1.6 0.00 0.00 0.00 61 1017.6
20260505123003 6 245 1.6 4.8 0.00 0.00 0.00 61 1017.6
20260505122503 7 242 3.2 4.8 0.00 0.00 0.00 60 1017.7
20260505122003 7 236 3.2 8.0 0.00 0.00 0.00 61 1017.6
20260505121503 7 235 3.2 4.8 0.00 0.00 0.00 60 1017.6
20260505121003 6 234 3.2 4.8 0.00 0.00 0.00 60 1017.6
20260505120504 6 233 3.2 8.0 0.00 0.00 0.00 60 1017.5
20260505120005 6 233 3.2 8.0 0.00 0.00 0.00 62 1017.6
20260505115504 6 235 0.0 3.2 0.00 0.00 0.00 65 1017.5
20260505115004 5 211 0.0 0.0 0.00 0.00 0.00 65 1017.5
20260505114504 5 211 0.0 0.0 0.00 0.00 0.00 64 1017.5
20260505114003 5 211 0.0 0.0 0.00 0.00 0.00 64 1017.6
20260505113503 5 211 0.0 0.0 0.00 0.00 0.00 63 1017.4
20260505112503 5 211 0.0 1.6 0.00 0.00 0.00 64 1017.5
20260505112005 5 211 0.0 0.0 0.00 0.00 0.00 63 1017.5
20260505111503 5 211 0.0 0.0 0.00 0.00 0.00 63 1017.4
20260505110504 5 211 0.0 0.0 0.00 0.00 0.00 64 1017.4
20260505102003 6 232 0.0 0.0 0.00 0.00 0.00 60 1017.5
20260505101504 6 232 0.0 1.6 0.00 0.00 0.00 61 1017.5
20260505101003 7 232 0.0 3.2 0.00 0.00 0.00 60 1017.6
20260505100003 6 237 3.2 4.8 0.00 0.00 0.00 61 1017.6
20260505095504 6 262 1.6 3.2 0.00 0.00 0.00 63 1017.5
20260505095005 6 297 1.6 4.8 0.00 0.00 0.00 62 1017.6
20260505094004 7 214 1.6 3.2 0.00 0.00 0.00 63 1017.6
20260505093505 7 236 0.0 0.0 0.00 0.00 0.00 62 1017.9
20260505092004 7 246 1.6 4.8 0.00 0.00 0.00 62 1017.9
20260505091504 7 221 1.6 3.2 0.00 0.00 0.00 61 1017.9
20260505091003 8 224 1.6 3.2 0.00 0.00 0.00 60 1017.9
20260505090004 8 232 3.2 8.0 0.00 0.00 0.00 61 1017.9
20260505085003 8 236 4.8 12.9 0.00 0.00 0.00 61 1018.0
20260505084503 8 216 3.2 8.0 0.00 0.00 0.00 62 1018.0
20260505084004 8 222 4.8 8.0 0.00 0.00 0.00 62 1018.0
20260505083504 8 229 3.2 4.8 0.00 0.00 0.00 62 1018.0
20260505083004 8 229 3.2 4.8 0.00 0.00 0.00 62 1018.0
20260505082503 8 229 3.2 4.8 0.00 0.00 0.00 62 1018.1
20260505082004 8 231 3.2 4.8 0.00 0.00 0.00 62 1018.1
20260505081504 8 236 1.6 4.8 0.00 0.00 0.00 62 1018.1
20260505081003 8 236 0.0 4.8 0.00 0.00 0.00 61 1018.4
20260505080004 8 230 3.2 4.8 0.00 0.00 0.00 60 1018.5
20260505075504 8 241 1.6 8.0 0.00 0.00 0.00 58 1018.5
20260505074505 8 229 1.6 8.0 0.00 0.00 0.00 60 1018.4
20260505074004 8 225 3.2 4.8 0.00 0.00 0.00 60 1018.4
20260505073503 8 240 3.2 4.8 0.00 0.00 0.00 60 1018.4
20260505072503 9 255 3.2 4.8 0.00 0.00 0.00 59 1018.4
20260505072004 9 245 3.2 4.8 0.00 0.00 0.00 58 1018.4
20260505071504 9 231 3.2 4.8 0.00 0.00 0.00 58 1018.4
20260505070504 10 237 4.8 8.0 0.00 0.00 0.00 57 1018.4
20260505070004 10 232 4.8 9.7 0.00 0.00 0.00 58 1018.4
20260505064004 10 234 3.2 8.0 0.00 0.00 0.00 55 1018.4
20260505063004 10 233 3.2 9.7 0.00 0.00 0.00 55 1018.3
20260505062503 10 224 4.8 9.7 0.00 0.00 0.00 54 1018.3
20260505062004 10 223 4.8 9.7 0.00 0.00 0.00 54 1018.5
20260505061503 10 230 3.2 4.8 0.00 0.00 0.00 54 1018.6
20260505061004 10 228 4.8 9.7 0.00 0.00 0.00 54 1018.5
20260505055504 11 220 4.8 9.7 0.00 0.00 0.00 53 1018.5
20260505055004 11 220 4.8 9.7 0.00 0.00 0.00 52 1018.6
20260505054504 11 217 3.2 8.0 0.00 0.00 0.00 52 1018.6
20260505054003 11 209 6.4 11.3 0.00 0.00 0.00 51 1018.7
20260505053504 11 218 4.8 11.3 0.00 0.00 0.00 51 1018.5
20260505053003 11 221 4.8 9.7 0.00 0.00 0.00 50 1018.5
20260505052504 11 216 4.8 9.7 0.00 0.00 0.00 49 1018.6
20260505052004 11 215 4.8 11.3 0.00 0.00 0.00 48 1018.5
20260505051504 11 218 4.8 19.3 0.00 0.00 0.00 48 1018.5
20260505051004 11 229 6.4 14.5 0.00 0.00 0.00 48 1018.6
20260505050503 11 225 4.8 11.3 0.00 0.00 0.00 48 1018.6
20260505041504 12 227 8.0 14.5 0.00 0.00 0.00 46 1018.2
20260505041005 12 223 8.0 20.9 0.00 0.00 0.00 46 1018.1
20260505040504 12 198 11.3 20.9 0.00 0.00 0.00 46 1018.1
20260505040005 12 222 11.3 20.9 0.00 0.00 0.00 46 1017.9
20260505035504 12 210 12.9 20.9 0.00 0.00 0.00 46 1017.9
20260505035004 12 216 9.7 19.3 0.00 0.00 0.00 46 1018.0
20260505034504 12 215 16.1 22.5 0.00 0.00 0.00 46 1017.9
20260505034004 12 203 14.5 20.9 0.00 0.00 0.00 47 1018.0
20260505033504 12 204 11.3 20.9 0.00 0.00 0.00 47 1018.0
20260505033004 12 218 11.3 20.9 0.00 0.00 0.00 47 1017.8
20260505032504 12 210 14.5 22.5 0.00 0.00 0.00 47 1017.6
20260505032004 12 210 16.1 22.5 0.00 0.00 0.00 47 1017.6
20260505031504 12 218 14.5 24.1 0.00 0.00 0.00 47 1017.7
20260505031003 12 214 14.5 22.5 0.00 0.00 0.00 48 1017.7
20260505030504 12 208 19.3 25.7 0.00 0.00 0.00 49 1017.7
20260505030004 12 208 16.1 25.7 0.00 0.00 0.00 49 1017.8
20260505025504 12 222 16.1 24.1 0.00 0.00 0.00 50 1017.7
20260505025005 13 218 14.5 22.5 0.00 0.00 0.00 51 1017.6
20260505024503 13 218 16.1 24.1 0.00 0.00 0.00 52 1017.6
20260505024004 13 222 14.5 25.7 0.00 0.00 0.00 51 1017.5
20260505022503 13 222 11.3 22.5 0.00 0.00 0.00 46 1017.6
20260505022004 14 214 14.5 25.7 0.00 0.00 0.00 45 1017.7
20260505021503 14 221 14.5 25.7 0.00 0.00 0.00 44 1017.4
20260505021004 15 216 14.5 20.9 0.00 0.00 0.00 43 1017.4
20260505020504 15 223 11.3 25.7 0.00 0.00 0.00 42 1017.3
20260505020004 15 214 12.9 20.9 0.00 0.00 0.00 42 1017.5
20260505015504 15 226 9.7 20.9 0.00 0.00 0.00 41 1017.5
20260505015004 15 211 14.5 22.5 0.00 0.00 0.00 40 1017.4
20260505014004 16 226 11.3 22.5 0.00 0.00 0.00 40 1017.4
20260505013505 16 208 20.9 25.7 0.00 0.00 0.00 39 1017.3
20260505013004 16 199 19.3 29.0 0.00 0.00 0.00 39 1017.4
20260505012504 16 209 16.1 25.7 0.00 0.00 0.00 39 1017.3
20260505012004 16 205 14.5 25.7 0.00 0.00 0.00 39 1017.2
20260505011504 16 208 16.1 27.4 0.00 0.00 0.00 39 1017.4
20260505011004 16 208 16.1 33.8 0.00 0.00 0.00 38 1017.3
20260505010504 17 197 17.7 33.8 0.00 0.00 0.00 38 1017.4
20260505010005 17 212 20.9 32.2 0.00 0.00 0.00 37 1017.3
20260505005504 17 217 16.1 25.7 0.00 0.00 0.00 36 1017.2
20260505005004 17 225 19.3 27.4 0.00 0.00 0.00 36 1017.3